IL6969 EGLL-EHRD

Flight info

Callsign IL6969
Flight time N/A
Altitude 23000
Route DCT D278F DCT D304H DCT D325H DCT CHT DCT BPK Q295 BRAIN M197 REDFA DCT MASOS DCT RD254 DCT HELHO DCT
Aircraft A20N/M-SDE2E3FGHIRWXY/LB1

Departure

Time 2026-05-07 17:10
Airport London Heathrow Airport (EGLL)

Arrival

Time N/A
Airport Rotterdam The Hague Airport (EHRD)
Time Latitude Longitude Altitude Speed Heading
2026-05-07 16:38 51.46980 -0.48030 93 ft 0 kts 269°
2026-05-07 16:48 51.46980 -0.48006 93 ft 3 kts 269°
2026-05-07 16:48 51.46980 -0.47976 93 ft 3 kts 269°
2026-05-07 16:48 51.46984 -0.47946 92 ft 3 kts 233°
2026-05-07 16:48 51.46998 -0.47928 93 ft 3 kts 193°
2026-05-07 16:49 51.47006 -0.47926 91 ft 0 kts 176°
2026-05-07 16:55 51.46973 -0.47922 93 ft 17 kts 176°
2026-05-07 16:55 51.46795 -0.47877 89 ft 16 kts 172°
2026-05-07 16:55 51.46747 -0.48008 91 ft 16 kts 264°
2026-05-07 16:56 51.46742 -0.48194 90 ft 18 kts 267°
2026-05-07 16:56 51.46742 -0.48406 91 ft 21 kts 271°
2026-05-07 16:56 51.46696 -0.48740 92 ft 7 kts 199°
2026-05-07 16:57 51.46624 -0.48755 91 ft 14 kts 191°
2026-05-07 16:57 51.46610 -0.48762 92 ft 0 kts 198°
2026-05-07 16:57 51.46608 -0.48763 91 ft 1 kts 197°
2026-05-07 16:58 51.46596 -0.48769 90 ft 3 kts 197°
2026-05-07 16:58 51.46578 -0.48777 88 ft 0 kts 196°
2026-05-07 17:02 51.46578 -0.48778 88 ft 0 kts 196°
2026-05-07 17:03 51.46575 -0.48779 88 ft 3 kts 196°
2026-05-07 17:03 51.46517 -0.48773 89 ft 13 kts 160°
2026-05-07 17:04 51.46481 -0.48632 89 ft 18 kts 92°
2026-05-07 17:04 51.46477 -0.48372 93 ft 28 kts 88°
2026-05-07 17:04 51.46479 -0.48203 89 ft 0 kts 89°
2026-05-07 17:04 51.46479 -0.48201 89 ft 3 kts 89°
2026-05-07 17:05 51.46493 -0.47805 86 ft 63 kts 82°
2026-05-07 17:05 51.46550 -0.47531 87 ft 0 kts 68°
2026-05-07 17:06 51.46562 -0.47511 88 ft 6 kts 41°
2026-05-07 17:06 51.46613 -0.47495 86 ft 11 kts 356°
2026-05-07 17:06 51.46654 -0.47594 85 ft 13 kts 274°
2026-05-07 17:06 51.46655 -0.47764 84 ft 17 kts 270°
2026-05-07 17:07 51.46657 -0.47978 89 ft 20 kts 270°
2026-05-07 17:07 51.46645 -0.48176 93 ft 8 kts 238°
2026-05-07 17:07 51.46597 -0.48213 91 ft 0 kts 184°
2026-05-07 17:09 51.46566 -0.48216 89 ft 17 kts 182°
2026-05-07 17:09 51.46481 -0.48132 88 ft 23 kts 99°
2026-05-07 17:09 51.46479 -0.48013 86 ft 9 kts 91°
2026-05-07 17:10 51.46478 -0.47491 84 ft 86 kts 89°
2026-05-07 17:10 51.46485 -0.46103 90 ft 163 kts 89°
2026-05-07 17:10 51.46504 -0.44141 571 ft 185 kts 89°
2026-05-07 17:10 51.46636 -0.41966 1047 ft 209 kts 71°
2026-05-07 17:11 51.47442 -0.39958 1627 ft 224 kts 49°
2026-05-07 17:11 51.48527 -0.38111 2432 ft 225 kts 45°
2026-05-07 17:11 51.49599 -0.36378 3586 ft 213 kts 45°
2026-05-07 17:11 51.50619 -0.34697 4618 ft 210 kts 46°
2026-05-07 17:12 51.51551 -0.32860 5382 ft 215 kts 60°
2026-05-07 17:12 51.52166 -0.30669 5850 ft 217 kts 69°
2026-05-07 17:12 51.52663 -0.28370 5988 ft 219 kts 71°
2026-05-07 17:12 51.53141 -0.26045 6002 ft 220 kts 71°
2026-05-07 17:13 51.53661 -0.23736 5998 ft 220 kts 64°
2026-05-07 17:13 51.54508 -0.21704 5998 ft 219 kts 43°
2026-05-07 17:13 51.55743 -0.20310 6003 ft 218 kts 26°
2026-05-07 17:13 51.57128 -0.19316 6001 ft 219 kts 21°
2026-05-07 17:14 51.58543 -0.18413 5998 ft 219 kts 19°
2026-05-07 17:14 51.59990 -0.17654 6002 ft 219 kts 16°
2026-05-07 17:14 51.61455 -0.16965 6001 ft 219 kts 15°
2026-05-07 17:14 51.62918 -0.16290 6001 ft 219 kts 15°
2026-05-07 17:15 51.64384 -0.15613 6001 ft 219 kts 15°
2026-05-07 17:15 51.65848 -0.14934 6000 ft 219 kts 15°
2026-05-07 17:15 51.67310 -0.14254 6002 ft 219 kts 15°
2026-05-07 17:15 51.68775 -0.13573 5998 ft 219 kts 15°
2026-05-07 17:16 51.70239 -0.12891 5999 ft 219 kts 15°
2026-05-07 17:16 51.71698 -0.12210 5998 ft 219 kts 15°
2026-05-07 17:16 51.73161 -0.11526 5999 ft 219 kts 15°
2026-05-07 17:16 51.74624 -0.10843 6001 ft 219 kts 15°
2026-05-07 17:17 51.76086 -0.10157 5999 ft 219 kts 15°
2026-05-07 17:17 51.77549 -0.09471 6002 ft 219 kts 15°
2026-05-07 17:17 51.79010 -0.08785 5999 ft 219 kts 15°
2026-05-07 17:17 51.80469 -0.08099 5997 ft 219 kts 15°
2026-05-07 17:18 51.81929 -0.07413 6002 ft 219 kts 15°
2026-05-07 17:18 51.83372 -0.06734 5998 ft 219 kts 15°
2026-05-07 17:18 51.84832 -0.06046 6002 ft 219 kts 15°
2026-05-07 17:18 51.86311 -0.05350 6002 ft 219 kts 15°
2026-05-07 17:19 51.87771 -0.04663 5999 ft 219 kts 15°
2026-05-07 17:19 51.89211 -0.03985 5999 ft 219 kts 15°
2026-05-07 17:19 51.90671 -0.03298 5999 ft 219 kts 15°
2026-05-07 17:19 51.92130 -0.02610 6000 ft 219 kts 15°
2026-05-07 17:20 51.93594 -0.01920 6001 ft 219 kts 15°
2026-05-07 17:20 51.94700 -0.01398 6000 ft 218 kts 15°
2026-05-07 17:20 51.94846 -0.01330 5997 ft 218 kts 15°